Regional Weather Roundup
Issued by NWS

Home | Current Version | Previous Version | Text Only | Print | Product List | Glossary On
Versions: 1 2 3 4 5 6 7 8 9 10 11 12 13 14 15 16 17 18 19 20 21 22 23 24 25 26 27 28 29 30 31 32 33 34 35 36 37 38 39 40 41 42 43 44 45 46 47 48 49 50
000
ASUS43 KMKX 051800
RWRWI

WISCONSIN REGIONAL WEATHER ROUNDUP
NATIONAL WEATHER SERVICE MILWAUKEE/SULLIVAN WI
100 PM CDT SUN JUL 05 2015

NOTE: "FAIR" INDICATES FEW OR NO CLOUDS BELOW 12,000 FEET WITH NO
SIGNIFICANT WEATHER AND/OR OBSTRUCTIONS TO VISIBILITY.

WIZ001-002-006>008-014>016-023>028-051900-
NORTHWEST WISCONSIN

CITY           SKY/WX    TMP DP  RH WIND       PRES   REMARKS
SUPERIOR ARPT  PTSUNNY   82  66  60 SW14      29.86R HX  84
ASHLAND        PTSUNNY   81  63  54 SW15G23   29.89F HX  82
6HR MIN TEMP:  65; 6HR MAX TEMP:  82;

HAYWARD        MOSUNNY   79  61  53 S18G25    29.93S HX  80
6HR MIN TEMP:  67; 6HR MAX TEMP:  80;

SIREN          MOSUNNY   82  63  52 S13G22    29.90S HX  83
CUMBERLAND     PTSUNNY   75  61  60 S13G22    29.94R
RICE LAKE      PTSUNNY   79  61  54 S14G20    29.95S HX  80
CHETEK         PTSUNNY   78  64  60 SE13      29.94F HX  80
LADYSMITH      PTSUNNY   79  63  58 S12       29.98F HX  80
EAU CLAIRE     NOT AVBL
MENOMONIE      PTSUNNY   81  63  55 S14       29.93F HX  82
NEW RICHMOND   PTSUNNY   78  64  62 S14G21    29.92R HX  80
OSCEOLA        PTSUNNY   80  66  62 S15G22    29.92S HX  82
$$

WIZ003>005-009-010-017-018-051900-
NORTH CENTRAL WISCONSIN

CITY           SKY/WX    TMP DP  RH WIND       PRES   REMARKS
MANITOWISH WTR MOSUNNY   77  61  57 SW12G22   29.97F
ARBOR VITAE    MOSUNNY   77  59  53 SW14G23   29.98F
WOODRUFF       MOSUNNY   77  59  53 SW14G23   29.98F
RHINELANDER    SUNNY     79  57  46 S17G23    30.01F HX  80
6HR MIN TEMP:  64; 6HR MAX TEMP:  80;

EAGLE RIVER    MOSUNNY   77  57  50 SW12G22   29.99F
LAND O LAKES   SUNNY     78  59  50 S9G18     29.99F
PHILLIPS       MOSUNNY   78  62  56 S14       29.97F HX  80
6HR MIN TEMP:  64; 6HR MAX TEMP:  78;

TOMAHAWK       SUNNY     77  60  54 S3        30.00F
MEDFORD        PTSUNNY   76  62  60 S12G17    30.01S
MERRILL        MOSUNNY   78  62  57 SW10G16   30.01F
$$

WIZ029-030-035-036-043>047-051900-
CENTRAL WISCONSIN

CITY           SKY/WX    TMP DP  RH WIND       PRES   REMARKS
WAUSAU         MOSUNNY   80  58  46 S12G21    30.00F HX  80
6HR MIN TEMP:  66; 6HR MAX TEMP:  81;

MOSINEE        MOSUNNY   77  63  61 S12G17    30.03F
MARSHFIELD     MOSUNNY   80  60  50 S10G18    30.01S HX  81
6HR MIN TEMP:  63; 6HR MAX TEMP:  80;

STEVENS POINT  MOSUNNY   78  59  52 S9G17     30.02F
WAUPACA        SUNNY     82  61  48 S9        30.03F HX  83
WAUTOMA        NOT AVBL
WISC RAPIDS    MOSUNNY   80  60  50 SW9       30.03F HX  81
6HR MIN TEMP:  65; 6HR MAX TEMP:  80;

CAMP DOUGLAS   NOT AVBL
$$

WIZ011>013-019>022-031-037>040-048>050-051900-
NORTHEAST WISCONSIN

CITY           SKY/WX    TMP DP  RH WIND       PRES   REMARKS
ANTIGO         PTSUNNY   76  64  65 S9        30.04F
SHAWANO        MOSUNNY   81  61  50 S8        30.03F HX  82
OCONTO         PTSUNNY   80  64  59 S14       30.02S HX  81
STURGEON BAY   SUNNY     77  64  65 S12       30.06S
6HR MIN TEMP:  63; 6HR MAX TEMP:  77;

GREEN BAY      SUNNY     81  62  52 SW9       30.03F HX  82
6HR MIN TEMP:  65; 6HR MAX TEMP:  81;

MANITOWOC      NOT AVBL
APPLETON       PTSUNNY   79  59  50 SW12      30.05F HX  80
CLINTONVILLE   MOSUNNY   81  59  47 S10       30.02F HX  81
OSHKOSH        MOSUNNY   79  63  57 S14G21    30.04F HX  80
6HR MIN TEMP:  66; 6HR MAX TEMP:  80;

$$

WIZ032>034-041-042-053>061-051900-
SOUTHWEST WISCONSIN

CITY           SKY/WX    TMP DP  RH WIND       PRES   REMARKS
LA CROSSE      MOSUNNY   83  63  50 S10       29.97F HX  84
6HR MIN TEMP:  66; 6HR MAX TEMP:  84;

SPARTA         MOSUNNY   83  58  43 S10       30.01F HX  83
VIROQUA        MOSUNNY   79  61  53 S13       30.03F HX  80
BOSCOBEL       MOSUNNY   83  64  52 SW7       30.01F HX  84
6HR MIN TEMP:  61; 6HR MAX TEMP:  84;

PRAIRIE DU CHI MOSUNNY   81  62  52 S7        30.00F HX  82
PLATTEVILLE    MOSUNNY   80  66  63 S10       30.04F HX  82
$$

WIZ056-057-062-063-064-067-068-051900-
SOUTH CENTRAL WISCONSIN

CITY           SKY/WX    TMP DP  RH WIND       PRES   REMARKS
REEDSBURG      MOSUNNY   80  65  59 S7G16     30.02F HX  82
BARABOO/DELLS  PTSUNNY   79  61  54 S9        30.04F HX  80
LONE ROCK      NOT AVBL
MINERAL POINT  MOSUNNY   81  63  54 S7        30.05F HX  82
MADISON        MOSUNNY   81  62  52 S14       30.04F HX  82
6HR MIN TEMP:  66; 6HR MAX TEMP:  81;

MIDDLETON      MOSUNNY   81  62  51 S9        30.05F HX  82
WATERTOWN      MOSUNNY   78  64  60 S6        30.06S HX  80
MONROE         MOSUNNY   77  63  61 S7        30.06F
JANESVILLE     MOSUNNY   81  61  50 SW12      30.06F HX  81
$$

WIZ051-052-058>065-066-070>072-051900-
SOUTHEAST WISCONSIN

CITY           SKY/WX    TMP DP  RH WIND       PRES   REMARKS
MILWAUKEE      MOSUNNY   81  59  47 SW8       30.07S HX  81
6HR MIN TEMP:  67; 6HR MAX TEMP:  81;

WAUKESHA       MOSUNNY   77  61  57 SW9       30.09
MILWAUKEE/TIMM MOSUNNY   81  55  41 S6        30.07S HX  80
RACINE         SUNNY     80  60  50 S10       30.09S HX  81
6HR MIN TEMP:  65; 6HR MAX TEMP:  81;

BURLINGTON     MOSUNNY   77  61  56 S3        30.08F
KENOSHA        MOSUNNY   82  62  50 S9        30.08S HX  83
6HR MIN TEMP:  62; 6HR MAX TEMP:  82;

FOND DU LAC    MOSUNNY   79  62  56 S12       30.05F HX  80
6HR MIN TEMP:  65; 6HR MAX TEMP:  80;

SHEBOYGAN      PTSUNNY   79  64  60 S10       30.06F HX  81
6HR MIN TEMP:  64; 6HR MAX TEMP:  79;

WEST BEND      MOSUNNY   79  59  50 S9        30.07F HX  80
JUNEAU         MOSUNNY   77  62  58 S9        30.07F
$$

LSZ147-162-051900-
LAKE SUPERIOR

STATION/POSITION TIME  TEMP    WIND        PRES    WAVE
                       AIR SEA DIR/SP/G            HT/PER
                 (UTC) (F)     (DEG/KT/KT) (MB)    (FT/S)
W MID LAKE BUOY  1650   50 40   90/  4/  4 1013.2F   0
DEVILS ISLAND    1700   61      70/  5/  5 1012.1F
SAXON HARBOR     1700   80     200/  9/ 14 1012.2F
$$

LMZ867-665-643>646-051900-
LAKE MICHIGAN

STATION/POSITION TIME  TEMP    WIND        PRES    WAVE
                       AIR SEA DIR/SP/G            HT/PER
                 (UTC) (F)     (DEG/KT/KT) (MB)    (FT/S)
CHAMBERS ISLAND  1700   76     150/  4/  9 1016.6F
S GREEN BAY BUOY 1700   73 70  210/  8/ 10 1018.3
N MID LAKE BUOY  1650   54 49  200/ 14/ 16 1017.3F   2/ 3
NORTHPORT PIER   1700   67     150/  8/ 10 1016.6F
SISTER BAY       1614   83        CALM       N/A
ALGOMA LAKESHORE 1711          200/ 10/ 11   N/A
KEWAUNEE LAKESHO 1700   63     180/ 10/ 11 1017.2F
SHEBOYGAN LAKESH 1700   63     160/ 13/ 13 1018.4S
PORT WASHINGTON  1700   70     170/  3/  4 1019.0
ATWATER BUOY     1700   64 61  140/  8/ 10 1019.5R
MILWAUKEE LAKESH 1700   65     130/  9/ 10   N/A
KENOSHA   LAKESH 1700   68     160/  8/  9 1017.9F
$$

TC  - TEMPERATURE IN CELSIUS
VSB - VISIBILITY IN STATUTE MILES
WCI - WIND CHILL INDEX
HX  - HEAT INDEX



USA.gov is the U.S. government's official web portal to all federal, state and local government web resources and services.